Regional Weather Roundup
Issued by NWS

Home | Current Version | Previous Version | Text Only | Print | Product List | Glossary On
Versions: 1 2 3 4 5 6 7 8 9 10 11 12 13 14 15 16 17 18 19 20 21 22 23 24 25 26 27 28 29 30 31 32 33 34 35 36 37 38 39 40 41 42 43 44 45 46 47 48 49 50
000
ASUS43 KBIS 241010
RWRND

NORTH DAKOTA REGIONAL WEATHER ROUNDUP
NATIONAL WEATHER SERVICE BISMARCK ND
500 AM CDT MON APR 24 2017

NOTE: "FAIR" INDICATES FEW OR NO CLOUDS BELOW 12,000 FEET WITH NO
SIGNIFICANT WEATHER AND/OR OBSTRUCTIONS TO VISIBILITY.


NDZ001>003-009>011-017-241100-
NORTHWEST NORTH DAKOTA

CITY           SKY/WX    TMP DP  RH WIND       PRES   REMARKS
WILLISTON      FLURRIES  32  28  85 E8        29.73F
MINOT          FLURRIES  30  27  88 NE12      29.77F
MINOT AFB      FLURRIES  28  27  93 NE9       29.77F WCI  20
$$

NDZ018>021-031>035-040>046-241100-
SOUTHWEST NORTH DAKOTA

CITY           SKY/WX    TMP DP  RH WIND       PRES   REMARKS
BISMARCK       LGT RAIN  33  32  96 NE15      29.67F
DICKINSON      MIX PCPN  28  27  96 NE15      29.63S VSB 1/4 WCI  16
GARRISON         N/A     29  28  96 E14       29.70F WCI  18
HETTINGER ARPT CLOUDY    31  30  96 NE13      29.63R
$$

NDZ004>008-012>016-024-026-027-054-241100-
NORTHEAST NORTH DAKOTA

CITY           SKY/WX    TMP DP  RH WIND       PRES   REMARKS
GRAND FORKS    CLOUDY    35  32  88 NE12      29.78F
GRND FRKS AFB  CLOUDY    33  31  91 E12       29.78F
DEVILS LAKE    CLOUDY    30  27  88 E23G30    29.76F WCI  17
$$

NDZ022-023-025-028>030-036>039-047>053-241100-
SOUTHEAST NORTH DAKOTA

CITY           SKY/WX    TMP DP  RH WIND       PRES   REMARKS
FARGO          CLOUDY    36  30  79 E10       29.69F
JAMESTOWN      CLOUDY    33  31  92 NE9       29.69S
$$




USA.gov is the U.S. government's official web portal to all federal, state and local government web resources and services.